Le nostre stazioni meteo in Italia

Pubblicità
Il mio iltempo24.it
Rostherne No 2, Gran Bretagna (3351): Temperatura & dewpoint: 15.08.2019 13:00:00 - 21.08.2019 13:00:00 (BST)Rostherne No 2, Gran Bretagna (3351): velocità del vento & gusts: 15.08.2019 13:00:00 - 21.08.2019 13:00:00 (BST)Rostherne No 2, Gran Bretagna (3351): direzione del vento: 15.08.2019 13:00:00 - 21.08.2019 13:00:00 (BST)Rostherne No 2, Gran Bretagna (3351): reduced air pressure: 15.08.2019 13:00:00 - 21.08.2019 13:00:00 (BST)Rostherne No 2, Gran Bretagna (3351): visibility: 15.08.2019 13:00:00 - 21.08.2019 13:00:00 (BST)Rostherne No 2, Gran Bretagna (3351): ore di luce: 15.08.2019 13:00:00 - 21.08.2019 13:00:00 (BST)Rostherne No 2, Gran Bretagna (3351): precipitazioni: 15.08.2019 13:00:00 - 21.08.2019 13:00:00 (BST)
Data & Tempo tt [°C] td [°C] ff [km/h] ff [kn] fx [km/h] fx [kn] dd ppp [hPa] vv [km] sd [min] rr [mm]
21.08.2019 13:00:00 18,5 11,5 13 7 - - OSO 1024,2 45 30 0,0
21.08.2019 12:00:00 18,3 12,7 15 8 - - SSO 1024,7 22 30 0,0
21.08.2019 11:00:00 17,2 13,8 9 5 - - SSO 1024,6 28 24 0,0
21.08.2019 10:00:00 16,0 14,1 11 6 - - S 1025,0 26 12 0,0
21.08.2019 09:00:00 13,9 12,7 11 6 - - S 1025,1 22 0 0,0
21.08.2019 08:00:00 13,3 12,3 8 4 - - S 1025,0 25 0 0,0
21.08.2019 07:00:00 12,7 11,8 9 5 - - S 1024,6 23 0 0,0
21.08.2019 06:00:00 12,4 11,6 9 5 - - S 1024,4 21 0 0,0
21.08.2019 05:00:00 12,7 11,8 8 4 - - S 1024,3 20 0 0,0
21.08.2019 04:00:00 12,9 11,9 8 4 - - S 1024,1 21 0 0,0
21.08.2019 03:00:00 13,7 12,8 9 5 - - SSO 1024,2 19 0 0,0
21.08.2019 02:00:00 13,7 12,9 8 4 - - SSO 1024,1 23 0 0,0
21.08.2019 01:00:00 13,8 13,2 9 5 - - S 1023,9 20 - 0,0
21.08.2019 00:00:00 13,6 13,1 11 6 - - S 1023,8 23 0 0,0
20.08.2019 23:00:00 12,9 12,6 9 5 - - S 1023,8 18 0 0,0
20.08.2019 22:00:00 12,8 12,4 11 6 - - SSE 1023,9 5 0 1,6
20.08.2019 21:00:00 13,3 11,8 11 6 - - SSO 1024,2 3,7 0 1,0
20.08.2019 20:00:00 15,3 10,3 11 6 - - O 1023,7 24 0 0,0
20.08.2019 19:00:00 16,9 10,6 4 2 - - O 1023,2 30 0 0,0
20.08.2019 18:00:00 17,2 9,1 13 7 - - ONO 1023,0 26 18 0,0
20.08.2019 17:00:00 19,1 9,1 16 9 - - ONO 1022,5 35 12 0,0
20.08.2019 16:00:00 18,6 8,8 21 11 - - O 1022,5 40 36 0,0
20.08.2019 15:00:00 18,5 10,1 22 12 - - ONO 1022,4 26 54 0,0
20.08.2019 14:00:00 16,0 9,6 18 10 - - ONO 1022,3 23 12 0,0
20.08.2019 13:00:00 15,4 11,2 16 9 - - O 1022,3 23 0 0,2
20.08.2019 12:00:00 16,2 11,0 18 10 - - O 1021,7 30 12 0,0
20.08.2019 11:00:00 15,5 12,5 16 9 - - O 1021,3 21 6 0,0
20.08.2019 10:00:00 14,1 11,4 21 11 - - O 1020,7 16 24 0,0
20.08.2019 09:00:00 14,0 13,2 13 7 - - O 1019,9 17 24 0,0
20.08.2019 08:00:00 11,9 11,4 13 7 - - OSO 1019,5 6 0 1,2
20.08.2019 07:00:00 11,9 11,4 13 7 - - OSO 1018,8 7 0 4,0
20.08.2019 06:00:00 11,8 11,2 9 5 - - OSO 1018,0 5 0 1,6
20.08.2019 05:00:00 11,7 10,9 15 8 - - O 1017,6 29 0 1,2
20.08.2019 04:00:00 11,7 10,3 15 8 - - OSO 1017,2 17 0 0,2
20.08.2019 03:00:00 11,4 9,8 8 4 - - SSO 1016,9 35 0 0,0
20.08.2019 02:00:00 11,4 9,7 8 4 - - SSO 1016,6 30 0 0,0
20.08.2019 01:00:00 12,3 10,1 8 4 - - SO 1016,6 40 - 0,0
20.08.2019 00:00:00 11,9 10,2 8 4 - - SSO 1016,3 30 0 0,0
19.08.2019 23:00:00 12,4 10,2 9 5 - - SO 1015,9 29 0 0,0
19.08.2019 22:00:00 13,0 10,3 8 4 - - SSO 1015,3 30 0 0,0
19.08.2019 21:00:00 13,8 10,2 8 4 - - SO 1014,9 30 0 0,0
19.08.2019 20:00:00 14,9 10,0 16 9 - - OSO 1014,3 40 48 0,0
19.08.2019 19:00:00 14,5 12,1 15 8 - - ONO 1013,8 30 6 0,8
19.08.2019 18:00:00 16,9 9,0 15 8 - - OSO 1013,2 40 18 0,0
19.08.2019 17:00:00 18,7 10,0 22 12 - - O 1013,0 22 30 0,0
19.08.2019 16:00:00 18,2 10,1 26 14 - - ONO 1012,8 45 42 0,0
19.08.2019 15:00:00 16,4 11,4 21 11 - - O 1012,5 30 18 0,0
19.08.2019 14:00:00 15,5 13,4 15 8 - - O 1012,4 10 12 0,2
19.08.2019 13:00:00 14,4 12,8 21 11 - - ONO 1011,9 10 0 1,8
19.08.2019 12:00:00 17,1 9,5 15 8 - - OSO 1010,9 25 24 0,0
19.08.2019 11:00:00 17,8 11,0 18 10 - - O 1010,8 20 42 0,0
19.08.2019 10:00:00 16,8 11,5 18 10 - - O 1010,3 23 60 0,0
19.08.2019 09:00:00 15,4 12,3 18 10 - - O 1009,9 16 60 0,0
19.08.2019 08:00:00 14,1 12,2 9 5 - - OSO 1009,3 19 36 0,0
19.08.2019 07:00:00 12,7 11,5 8 4 - - SO 1008,9 15 0 0,0
19.08.2019 06:00:00 13,4 11,9 11 6 - - OSO 1007,9 26 0 0,0
19.08.2019 05:00:00 12,9 11,8 8 4 - - SO 1007,1 20 0 0,0
19.08.2019 04:00:00 13,0 11,9 9 5 - - SO 1006,7 17 0 0,0
19.08.2019 03:00:00 13,0 11,8 8 4 - - SSO 1006,4 16 0 0,0
19.08.2019 02:00:00 13,2 12,0 9 5 - - SSO 1006,1 15 0 0,0
19.08.2019 01:00:00 13,2 11,8 11 6 - - SSO 1005,8 15 - 0,0
19.08.2019 00:00:00 13,3 11,8 9 5 - - SSO 1005,4 18 0 0,0
18.08.2019 23:00:00 13,5 11,4 9 5 - - SSO 1004,8 24 0 0,0
18.08.2019 22:00:00 14,2 11,6 9 5 - - SO 1004,4 26 0 0,0
18.08.2019 21:00:00 15,3 11,2 18 10 - - SO 1003,5 22 0 0,0
18.08.2019 20:00:00 16,0 10,2 15 8 - - SO 1003,1 25 0 0,0
18.08.2019 19:00:00 16,5 9,8 22 12 - - OSO 1003,0 25 0 0,0
18.08.2019 18:00:00 16,9 9,6 18 10 48 26 OSO 1002,6 20 0 0,0
18.08.2019 17:00:00 17,7 8,7 26 14 48 26 OSO 1002,1 25 12 0,0
18.08.2019 16:00:00 18,7 8,1 21 11 - - OSO 1001,9 35 18 0,0
18.08.2019 15:00:00 17,8 8,3 28 15 48 26 OSO 1001,7 29 30 0,0
18.08.2019 14:00:00 19,2 9,1 24 13 48 26 OSO 1001,2 26 54 0,0
18.08.2019 13:00:00 18,8 9,1 24 13 - - OSO 1000,8 29 30 0,0
18.08.2019 12:00:00 17,5 9,6 18 10 - - OSO 1000,5 25 30 0,0
18.08.2019 11:00:00 17,7 12,0 16 9 - - SO 1000,3 22 54 0,0
18.08.2019 10:00:00 16,2 12,1 11 6 - - SO 1000,3 28 42 0,0
18.08.2019 09:00:00 14,7 11,2 15 8 - - SSO 1000,0 30 42 0,0
18.08.2019 08:00:00 13,8 10,9 13 7 - - SSO 999,7 22 48 0,0
18.08.2019 07:00:00 12,5 10,6 9 5 - - SO 999,8 23 6 0,0
18.08.2019 06:00:00 12,6 10,7 9 5 - - SO 999,9 21 0 0,0
18.08.2019 05:00:00 12,1 10,3 8 4 - - S 1000,1 25 0 0,0
18.08.2019 04:00:00 12,7 10,7 13 7 - - SSO 1000,3 19 0 0,0
18.08.2019 03:00:00 12,5 10,3 11 6 - - SSO 1000,4 19 0 0,0
18.08.2019 02:00:00 12,9 10,1 11 6 - - SSO 1000,7 22 0 0,0
18.08.2019 01:00:00 12,9 10,2 8 4 - - S 1001,3 25 - 0,0
18.08.2019 00:00:00 13,5 9,9 11 6 - - S 1001,8 23 0 0,0
17.08.2019 23:00:00 13,8 9,5 9 5 - - SSO 1001,8 25 0 0,0
17.08.2019 22:00:00 13,7 8,7 4 2 - - S 1001,8 40 0 0,0
17.08.2019 21:00:00 15,1 8,5 11 6 - - SO 1001,8 30 6 0,0
17.08.2019 20:00:00 16,8 8,4 13 7 - - SO 1001,7 35 48 0,0
17.08.2019 19:00:00 17,5 9,3 16 9 - - SO 1001,5 40 18 0,0
17.08.2019 18:00:00 18,7 9,1 18 10 - - OSO 1001,6 35 30 0,0
17.08.2019 17:00:00 19,4 9,6 24 13 - - OSO 1001,8 23 36 0,0
17.08.2019 16:00:00 19,1 9,3 18 10 - - OSO 1001,7 28 42 0,0
17.08.2019 15:00:00 18,0 8,1 22 12 - - OSO 1002,0 26 48 0,0
17.08.2019 14:00:00 18,9 9,1 24 13 - - O 1001,7 28 42 0,0
17.08.2019 13:00:00 18,5 10,1 24 13 - - OSO 1001,6 28 30 0,0
17.08.2019 12:00:00 18,0 12,2 15 8 - - O 1001,5 30 30 0,0
17.08.2019 11:00:00 16,1 11,7 16 9 - - ONO 1001,3 11 42 0,2
17.08.2019 10:00:00 16,9 13,6 16 9 - - O 1000,6 30 30 0,0
17.08.2019 09:00:00 14,9 13,9 15 8 - - O 1000,4 17 12 1,2
17.08.2019 08:00:00 14,6 13,3 9 5 - - SO 999,9 16 0 0,0
17.08.2019 07:00:00 14,4 12,9 11 6 - - SSO 999,2 18 0 0,0
17.08.2019 06:00:00 13,6 12,2 8 4 - - S 998,9 17 0 0,0
17.08.2019 05:00:00 14,5 12,6 11 6 - - SSO 998,9 16 0 0,0
17.08.2019 04:00:00 14,6 12,8 13 7 - - SSO 999,1 17 0 0,0
17.08.2019 03:00:00 14,0 12,5 9 5 - - SSO 999,0 16 0 0,0
17.08.2019 02:00:00 14,0 12,5 13 7 - - SSO 998,8 19 0 0,0
17.08.2019 01:00:00 14,4 12,3 15 8 - - SSO 998,6 25 - 0,0
17.08.2019 00:00:00 15,7 13,9 11 6 - - SSO 998,5 35 0 0,0
16.08.2019 23:00:00 16,3 15,6 8 4 - - S 998,4 50 0 0,0
16.08.2019 22:00:00 16,9 16,2 13 7 - - S 998,9 50 0 0,0
16.08.2019 21:00:00 16,8 16,1 11 6 - - SSO 998,8 50 0 0,0
16.08.2019 20:00:00 16,7 16,1 16 9 - - S 998,6 50 0 0,0
16.08.2019 19:00:00 16,5 15,9 18 10 - - S 999,3 35 0 1,0
16.08.2019 18:00:00 16,1 15,6 28 15 46 25 S 999,6 8 0 2,2
16.08.2019 17:00:00 16,3 15,6 26 14 46 25 S 1000,7 22 0 0,6
16.08.2019 16:00:00 16,3 15,5 24 13 - - S 1001,8 30 0 1,8
16.08.2019 15:00:00 15,6 14,7 26 14 - - S 1003,0 10 0 2,2
16.08.2019 14:00:00 15,5 14,3 28 15 - - S 1003,4 15 0 1,0
16.08.2019 13:00:00 15,2 14,4 21 11 - - S 1004,5 10 0 2,4
16.08.2019 12:00:00 15,2 14,2 21 11 - - S 1005,5 11 0 1,2
16.08.2019 11:00:00 15,1 13,9 21 11 - - S 1006,2 23 0 0,8
16.08.2019 10:00:00 14,5 13,6 18 10 - - S 1007,3 10 0 1,6
16.08.2019 09:00:00 14,4 13,4 21 11 - - S 1008,2 11 0 2,6
16.08.2019 08:00:00 14,4 13,1 21 11 - - S 1009,3 10 0 0,2
16.08.2019 07:00:00 14,5 12,4 15 8 - - S 1010,0 30 0 0,0
16.08.2019 06:00:00 13,9 12,2 16 9 - - S 1010,9 35 0 0,0
16.08.2019 05:00:00 13,6 11,9 13 7 - - S 1011,7 35 0 0,0
16.08.2019 04:00:00 14,1 11,9 11 6 - - S 1012,7 35 0 0,0
16.08.2019 03:00:00 14,3 11,9 15 8 - - S 1013,0 50 0 0,0
16.08.2019 02:00:00 13,9 11,9 11 6 - - S 1013,6 40 0 0,0
16.08.2019 01:00:00 13,2 11,8 9 5 - - SSE 1014,0 29 - 0,0
16.08.2019 00:00:00 12,7 11,4 9 5 - - SSE 1014,8 30 0 0,0
15.08.2019 23:00:00 10,9 10,0 9 5 - - SE 1015,5 40 0 0,0
15.08.2019 22:00:00 10,5 8,7 8 4 - - SSE 1015,3 35 0 0,0
15.08.2019 21:00:00 12,6 9,1 11 6 - - O 1014,9 40 12 0,0
15.08.2019 20:00:00 15,7 9,0 5 3 - - ONO 1014,8 40 60 0,0
15.08.2019 19:00:00 16,8 8,5 18 10 - - ONO 1014,9 35 60 0,0
15.08.2019 18:00:00 17,6 8,3 16 9 - - ONO 1014,7 40 48 0,0
15.08.2019 17:00:00 17,4 9,5 28 15 - - ONO 1014,2 28 12 0,0
15.08.2019 16:00:00 17,2 10,6 26 14 - - ONO 1013,4 35 6 0,0
15.08.2019 15:00:00 17,3 10,2 28 15 46 25 ONO 1013,0 30 18 0,0
15.08.2019 14:00:00 17,9 10,5 29 16 48 26 ONO 1012,3 30 30 0,0
15.08.2019 13:00:00 16,4 10,1 28 15 52 28 ONO 1011,7 45 30 0,0

tt = Temperatura
td = dewpoint
ff = velocità del vento
fx = gusts
dd = direzione del vento
ppp = reduced air pressure
vv = visibility
sd = ore di luce
rr = precipitazioni

Stazioni seguenti

WeatherPro
AMSI
MeteoEarth